Location: Ferintosh
(52.7647°N, 112.9692°W)
Time: 23:28:02
(UTC+00:00)

A-11 Canister half - Pass Details

Date: 27 May 2024
Orbit: 1524 x 1683 km, 47.3° (Epoch: 20 June)

Event Time Altitude Azimuth Distance (km) Brightness Sun altitude
Rises 07:17:40 0° 272° (W) 4,717 11.6 -15.8°
Reaches altitude 10° 07:20:44 10° 269° (W) 3,749 11.0 -15.8°
Maximum altitude 07:30:00 60° 192° (SSW) 1,787 9.0 -15.8°
Drops below altitude 10° 07:39:36 10° 116° (ESE) 3,868 10.9 -15.8°
Sets 07:42:49 0° 113° (ESE) 4,874 11.4 -15.8°
